CP10 (EXOCUBE)

Last updated on Mon Jul 01 2024 00:03:35 GMT+0000 (Coordinated Universal Time)

1 40380U 15003E 24182.29439326 .12301313 36927-5 27311-3 0 9992 2 40380 99.0706 214.5343 0008594 263.9778 96.0540 16.46099438521550
UTC large
Height (km)
Speed (km/s)
/
Latitude / Longitude
Inclination (degrees)
Orbital Period (minutes)
Azimuth
Elevation
Range (km)
Doppler Factor

Next 0 passes for location: London (51.5072 / 0.1276)

Sorry there are no passes over London.